WetterOnline ( https://www.wetteronline.de )

Wetter aktuell Traunstein

Aktuelles Wetter: Chieming (553m)

6-stündlich | Neueste Meldungen
Ortszeit Temperatur Wetter
Do, 18.04. 2:00 2.3° C bedeckt
Mi, 17.04. 20:00 2.9° C leichter Regen
Mi, 17.04. 14:00 5.6° C wolkig
Mi, 17.04. 8:00 2.0° C leichter Regen
Mi, 17.04. 2:00 6.4° C bedeckt
Di, 16.04. 20:00 9.0° C bedeckt
Di, 16.04. 14:00 8.6° C wolkig
Di, 16.04. 8:00 3.9° C leichter Regen
Ortszeit Temperatur Wetter
Do, 18.04. 3:00 2.8° C bedeckt
Do, 18.04. 2:50 2.8° C bedeckt
Do, 18.04. 2:40 2.7° C bedeckt
Do, 18.04. 2:30 2.2° C bedeckt
Do, 18.04. 2:20 2.2° C bedeckt
Do, 18.04. 2:10 2.2° C bewölkt
Do, 18.04. 2:00 2.3° C bedeckt
Do, 18.04. 1:30 2.2° C bedeckt
Do, 18.04. 1:00 2.3° C Regen
Do, 18.04. 0:30 2.3° C leichter Regen
Do, 18.04. 0:00 2.2° C leichter Regen
Ortszeit Relative Feuchte Sichtweite
Do, 18.04. 2:00 94% 45 km
Mi, 17.04. 20:00 90% 21 km
Mi, 17.04. 14:00 76% >70 km
Mi, 17.04. 8:00 94% 13 km
Mi, 17.04. 2:00 70% >70 km
Di, 16.04. 20:00 50% >70 km
Di, 16.04. 14:00 47% 50 km
Di, 16.04. 8:00 83% 23 km
Ortszeit Relative Feuchte Sichtweite
Do, 18.04. 3:00 91% 50 km
Do, 18.04. 2:50 91% -
Do, 18.04. 2:40 91% -
Do, 18.04. 2:30 92% 45 km
Do, 18.04. 2:20 92% -
Do, 18.04. 2:10 92% -
Do, 18.04. 2:00 94% 45 km
Do, 18.04. 1:30 94% 45 km
Do, 18.04. 1:00 94% 45 km
Do, 18.04. 0:30 88% 9 km
Do, 18.04. 0:00 92% 13 km
Ortszeit Niederschlagsmenge Niederschlagsart
Do, 18.04. 2:00 1 l/m2 in 6 Std. Regen
Mi, 17.04. 20:00 8 l/m2 in 12 Std. Regen
Mi, 17.04. 14:00 4 l/m2 in 6 Std. Schnee, Regen
Mi, 17.04. 8:00 2 l/m2 in 12 Std. Schnee, Regen
Mi, 17.04. 2:00 0.0 l/m2 in 6 Std. -
Di, 16.04. 20:00 0.1 l/m2 in 12 Std. -
Di, 16.04. 14:00 0.1 l/m2 in 6 Std. Regen
Di, 16.04. 8:00 0.2 l/m2 in 12 Std. Regen
Ortszeit Niederschlagsmenge Niederschlagsart
Do, 18.04. 3:00 0.0 l/m2 in 1 Std. -
Do, 18.04. 2:50 keine Meldung -
Do, 18.04. 2:40 keine Meldung -
Do, 18.04. 2:30 0.0 l/m2 in 30 Min -
Do, 18.04. 2:20 keine Meldung -
Do, 18.04. 2:10 keine Meldung -
Do, 18.04. 2:00 0.0 l/m2 in 1 Std. Regen
Do, 18.04. 1:30 0.0 l/m2 in 30 Min -
Do, 18.04. 1:00 0.5 l/m2 in 1 Std. Regen
Do, 18.04. 0:30 0.3 l/m2 in 30 Min -
Do, 18.04. 0:00 0.5 l/m2 in 1 Std. Regen
Ortszeit Stärke Spitze Richtung
km/h Bft. km/h Grad Sektor
Do, 18.04. 2:00 4 1 40 200° S
Mi, 17.04. 20:00 26 4 41 250° W
Mi, 17.04. 14:00 13 3 22 240° SW
Mi, 17.04. 8:00 17 3 44 300° NW
Mi, 17.04. 2:00 24 4 57 260° W
Di, 16.04. 20:00 22 4 76 260° W
Di, 16.04. 14:00 48 6 76 280° W
Di, 16.04. 8:00 24 4 48 250° W
Ortszeit Stärke Spitze Richtung
km/h Bft. km/h Grad Sektor
Do, 18.04. 3:00 7 2 18 220° SW
Do, 18.04. 2:50 7 2 - 220° SW
Do, 18.04. 2:40 9 2 - 220° SW
Do, 18.04. 2:30 6 1 7 200° S
Do, 18.04. 2:20 6 1 - 200° S
Do, 18.04. 2:10 4 1 - 200° S
Do, 18.04. 2:00 4 1 7 200° S
Do, 18.04. 1:30 0 0 7 - -
Do, 18.04. 1:00 6 1 20 150° SO
Do, 18.04. 0:30 13 3 20 280° W
Do, 18.04. 0:00 13 3 31 250° W
Ortszeit Untergrenze Bedeckung Gattung
total tief tief mittel hoch
Do, 18.04. 2:00 1050 m 8/8 8/8 - - -
Mi, 17.04. 20:00 270 m 6/8 6/8 - - -
Mi, 17.04. 14:00 660 m 7/8 5/8 - - -
Mi, 17.04. 8:00 150 m 7/8 7/8 - - -
Mi, 17.04. 2:00 900 m 8/8 8/8 - - -
Di, 16.04. 20:00 1500 m 8/8 8/8 - - -
Di, 16.04. 14:00 1500 m 7/8 3/8 - - -
Di, 16.04. 8:00 420 m 7/8 7/8 - - -
Ortszeit Bedeckungsgrad in Achtel und Wolkenuntergrenze
Do, 18.04. 3:00 5(690m) 5(840m) 8(960m)
Do, 18.04. 2:50 5(690m) 5(840m) 8(960m)
Do, 18.04. 2:40 8
Do, 18.04. 2:30 3(750m) 8(960m)
Do, 18.04. 2:20 3(750m) 8(960m)
Do, 18.04. 2:10 7
Do, 18.04. 2:00 8(1050m)
Do, 18.04. 1:30 8(1140m)
Do, 18.04. 1:00 1(690m) 7(1020m) 8(1260m)
Do, 18.04. 0:30 2(180m) 7(570m) 7(690m)
Do, 18.04. 0:00 7(150m) 8(300m)
Ortszeit Luftdruck NN (hPa) Tendenz (hPa in 3 Std.)
Do, 18.04. 2:00 1013 - 0,1
Mi, 17.04. 20:00 1011 + 1,2
Mi, 17.04. 14:00 1009 - 0,7
Mi, 17.04. 8:00 1010 + 1,3
Mi, 17.04. 2:00 1008 + 0,3
Di, 16.04. 20:00 1007 + 0,6
Di, 16.04. 14:00 1008 - 2,4
Di, 16.04. 8:00 1012 + 1,1
Ortszeit Luftdruck NN (hPa) Tendenz (hPa in 3 Std.)
Do, 18.04. 3:00 1013 - 0,2
Do, 18.04. 2:50 1013 keine Meldung
Do, 18.04. 2:40 1013 keine Meldung
Do, 18.04. 2:30 1013 - 0,1
Do, 18.04. 2:20 1013 keine Meldung
Do, 18.04. 2:10 1013 keine Meldung
Do, 18.04. 2:00 1013 - 0,1
Do, 18.04. 1:30 1013 + 0,2
Do, 18.04. 1:00 1013 + 0,1
Do, 18.04. 0:30 1013 + 0,2
Do, 18.04. 0:00 1013 + 0,6
Ortszeit Schneehöhe (cm)
Do, 18.04. 2:00 0
Mi, 17.04. 20:00 0
Mi, 17.04. 14:00 0
Mi, 17.04. 8:00 0
Mi, 17.04. 2:00 0
Di, 16.04. 20:00 0
Di, 16.04. 14:00 0
Di, 16.04. 8:00 0
Ortszeit Schneehöhe (cm)
Do, 18.04. 3:00 0
Do, 18.04. 2:50 0
Do, 18.04. 2:40 -
Do, 18.04. 2:30 0
Do, 18.04. 2:20 0
Do, 18.04. 2:10 -
Do, 18.04. 2:00 0
Do, 18.04. 1:30 0
Do, 18.04. 1:00 0
Do, 18.04. 0:30 0
Do, 18.04. 0:00 0
Link zu dieser Seite / Seite empfehlen

Das Wetter in ...